15min,AgWx,evansfrm,411,13SEP2017:00:00:00,58.9,12.95,56.9,57.0,57.6,58.2,56.9,74,75,73,1.160,49.4,50.0,48.5,1.359,1.1,136,14,2.9,-0.00020,-0.00028,79.0,77.9,11,0,0,55.4,3.39,0.00,0.00
15min,AgWx,evansfrm,411,13SEP2017:00:15:00,58.5,12.94,59.1,59.0,57.7,59.1,56.3,72,75,69,1.168,48.9,49.8,47.8,1.469,1.8,54,30,3.5,-0.00014,-0.00017,78.8,77.9,11,0,0,55.8,3.39,0.00,0.00
15min,AgWx,evansfrm,411,13SEP2017:00:30:00,58.2,12.94,56.7,56.5,57.9,58.9,56.5,70,73,69,1.141,48.3,49.1,47.3,1.863,2.0,113,72,6.4,-0.00012,-0.00014,78.4,77.5,11,0,0,55.8,3.39,0.00,0.00
15min,AgWx,evansfrm,411,13SEP2017:00:45:00,57.7,12.94,55.8,56.1,55.9,56.7,55.4,77,78,73,1.190,48.9,49.5,48.0,0,1.5,144,34,3.7,-0.00017,-0.00022,78.1,77.5,11,0,0,54.3,3.39,0.00,0.00
15min,AgWx,evansfrm,411,13SEP2017:01:00:00,57.1,12.92,55.6,55.3,56.3,56.6,55.3,77,78,75,1.125,49.3,49.6,47.7,2.938,0.2,307,32,3.1,-0.00029,-0.00045,77.8,77.4,11,0,0,53.6,3.39,0.00,0.00
15min,AgWx,evansfrm,411,13SEP2017:01:15:00,56.7,12.92,54.2,54.2,55.2,56.4,54.0,78,79,76,1.137,48.4,49.5,47.7,0.022,1.4,118,35,2.9,-0.00018,-0.00024,77.5,77.4,11,0,0,53.7,3.39,0.00,0.00
15min,AgWx,evansfrm,411,13SEP2017:01:30:00,56.4,12.92,56.3,56.1,55.5,56.7,53.9,78,80,75,1.168,48.7,49.5,47.6,2.521,1.9,57,49,3.5,-0.00015,-0.00019,77.2,77.0,11,0,0,53.9,3.39,0.00,0.00
15min,AgWx,evansfrm,411,13SEP2017:01:45:00,56.3,12.88,56.8,57.0,56.4,57.2,55.6,76,77,72,1.147,48.9,49.3,48.2,1.995,2.4,91,54,4.8,-0.00011,-0.00013,77.0,77.0,11,0,0,55.5,3.39,0.00,0.00
15min,AgWx,evansfrm,411,13SEP2017:02:00:00,56.4,12.91,58.6,58.7,57.1,58.9,55.6,76,81,70,1.201,49.5,50.6,48.1,3.793,3.9,312,26,7.4,-0.00002,-0.00001,76.5,77.0,11,0,0,56.1,3.38,0.00,0.00
15min,AgWx,evansfrm,411,13SEP2017:02:15:00,56.8,12.9,60.2,60.2,58.8,60.2,58.0,72,75,69,1.224,49.9,50.5,49.3,3.069,3.3,37,43,6.4,-0.00003,-0.00001,76.2,76.6,11,0,0,57.4,3.38,0.00,0.00
15min,AgWx,evansfrm,411,13SEP2017:02:30:00,57.2,12.9,59.9,59.7,60.2,60.7,59.6,68,69,67,1.208,49.7,49.9,49.4,3.529,3.1,360,25,6.0,-0.00002,0.00000,76.1,76.3,11,0,0,58.2,3.38,0.00,0.00
15min,AgWx,evansfrm,411,13SEP2017:02:45:00,57.4,12.9,58.4,58.6,59.3,59.8,58.6,70,71,69,1.187,49.4,49.7,49.1,0,0.3,339,15,3.2,-0.00028,-0.00043,75.8,76.5,11,0,0,56.7,3.39,0.01,0.00
15min,AgWx,evansfrm,411,13SEP2017:03:00:00,57.1,12.89,58.0,58.0,58.1,58.6,57.7,73,74,71,1.214,49.5,49.9,49.0,0.197,0.6,74,33,2.7,-0.00025,-0.00037,75.5,76.3,11,0,0,55.0,3.39,0.00,0.00
15min,AgWx,evansfrm,411,13SEP2017:03:15:00,57.0,12.89,58.0,58.0,58.1,58.8,57.3,73,74,72,1.201,49.5,49.9,48.9,6.796,0.8,351,32,6.8,-0.00024,-0.00035,75.4,76.1,11,0,0,56.1,3.39,0.00,0.00
15min,AgWx,evansfrm,411,13SEP2017:03:30:00,57.3,12.88,58.6,58.4,58.7,59.1,58.1,72,73,71,1.219,49.8,50.1,49.6,2.718,3.1,0.7,37,6.5,-0.00004,-0.00003,75.1,75.9,11,0,0,57.8,3.38,0.00,0.00
15min,AgWx,evansfrm,411,13SEP2017:03:45:00,57.5,12.87,58.3,58.1,58.0,58.6,57.5,76,77,73,1.247,50.3,50.7,49.7,2.214,1.8,139,92,4.2,-0.00015,-0.00019,75.0,75.7,11,0,0,57.6,3.38,0.00,0.00
15min,AgWx,evansfrm,411,13SEP2017:04:00:00,57.8,12.87,58.1,57.9,58.1,58.6,57.5,76,78,74,1.249,50.6,51.1,50.3,2.718,2.2,263,67,4.7,-0.00012,-0.00015,74.7,75.7,11,0,0,57.6,3.39,0.00,0.00
15min,AgWx,evansfrm,411,13SEP2017:04:15:00,57.7,12.86,57.2,57.4,57.8,58.5,57.1,76,78,74,1.253,50.1,50.6,49.7,0,1.3,41,53,3.4,-0.00018,-0.00025,74.6,75.6,11,0,0,55.4,3.39,0.01,0.00
15min,AgWx,evansfrm,411,13SEP2017:04:30:00,57.4,12.85,57.7,57.6,57.6,57.9,57.2,77,78,76,1.232,50.4,50.8,50.0,2.916,1.8,31,60,4.4,-0.00015,-0.00020,74.5,75.4,11,0,0,55.1,3.39,0.00,0.00
15min,AgWx,evansfrm,411,13SEP2017:04:45:00,57.1,12.85,57.5,57.6,57.5,57.8,57.2,77,78,76,1.238,50.2,50.5,49.9,1.162,2.0,317,53,3.9,-0.00014,-0.00017,74.1,75.0,11,0,0,55.2,3.39,0.00,0.00
15min,AgWx,evansfrm,411,13SEP2017:05:00:00,57.0,12.83,56.4,56.2,56.5,57.8,55.8,79,82,76,1.236,50.1,50.6,49.3,2.192,1.9,112,39,3.5,-0.00015,-0.00020,74.1,75.0,11,0,0,56.0,3.39,0.00,0.00
15min,AgWx,evansfrm,411,13SEP2017:05:15:00,57.0,12.81,57.7,57.6,56.8,57.6,56.1,80,81,78,1.267,50.8,51.2,50.1,1.885,1.6,188,12,4.3,-0.00017,-0.00023,73.9,75.0,11,0,0,56.7,3.39,0.00,0.00
15min,AgWx,evansfrm,411,13SEP2017:05:30:00,57.1,12.82,57.6,57.6,57.5,57.7,57.2,79,80,77,1.253,50.9,51.3,50.5,2.389,3.0,165,12,4.5,-0.00008,-0.00009,73.8,74.8,11,0,0,57.0,3.39,0.00,0.00
15min,AgWx,evansfrm,411,13SEP2017:05:45:00,57.0,12.81,57.2,57.2,57.8,58.4,57.1,73,77,70,1.174,49.2,50.5,48.2,3.398,3.3,150,14,4.3,-0.00004,-0.00003,73.6,74.8,11,0,0,56.7,3.39,0.00,0.00
15min,AgWx,evansfrm,411,13SEP2017:06:00:00,56.8,12.81,58.4,58.6,57.8,58.7,57.2,72,74,70,1.181,48.8,49.0,48.5,6.204,2.6,209,50,6.2,-0.00008,-0.00009,73.3,74.5,11,1,0,57.2,3.39,0.00,0.00
15min,AgWx,evansfrm,411,13SEP2017:06:15:00,57.1,12.8,58.6,58.6,58.3,58.6,57.8,74,75,71,1.241,50.0,50.4,49.1,0.285,2.1,11,35,6.2,-0.00010,-0.00012,73.3,74.5,11,5,0,57.6,3.39,0.00,0.00
15min,AgWx,evansfrm,411,13SEP2017:06:30:00,57.4,12.81,58.8,58.7,58.9,59.5,58.5,73,74,70,1.253,50.2,50.6,49.6,0.066,1.5,358,63,8.0,-0.00023,-0.00016,73.2,74.3,11,18,0,58.8,3.39,0.00,0.00
15min,AgWx,evansfrm,411,13SEP2017:06:45:00,57.9,12.84,59.9,59.8,58.9,59.8,58.4,74,76,72,1.266,50.7,50.9,50.3,4.823,3.7,178,16,5.4,0.00004,0.00022,73.0,74.1,11,42,0,60.5,3.38,0.00,0.00
15min,AgWx,evansfrm,411,13SEP2017:07:00:00,60.0,12.96,67.5,67.5,63.4,67.5,59.8,61,72,50,1.141,49.4,50.8,47.9,5.656,6.5,146,10,9.9,0.00082,0.00136,73.0,74.1,11,121,0,67.3,3.38,0.00,0.00
15min,AgWx,evansfrm,411,13SEP2017:07:15:00,63.4,12.97,68.7,68.5,69.5,71.5,67.5,46,50,42,1.131,47.6,48.4,46.8,3.508,6.0,158,17,11.0,0.00115,0.00190,72.8,73.8,11,111,0,73.2,3.40,0.03,0.00
15min,AgWx,evansfrm,411,13SEP2017:07:30:00,64.8,12.94,69.6,69.5,68.4,69.5,67.5,48,52,44,1.091,48.2,49.7,46.7,5.678,4.1,212,17,7.3,0.00097,0.00148,72.8,73.9,11,70,0,70.5,3.41,0.00,0.00
15min,AgWx,evansfrm,411,13SEP2017:07:45:00,66.6,13.04,70.4,70.3,70.2,70.8,69.5,44,46,43,1.150,47.5,48.6,46.4,6.16,5.5,172,15,8.4,0.00143,0.00217,72.7,73.6,11,109,0,73.6,3.40,0.00,0.00
15min,AgWx,evansfrm,411,13SEP2017:08:00:00,67.8,13.06,72.1,72.1,70.7,72.4,69.0,45,49,41,1.157,48.2,49.0,47.0,2.587,5.4,156,21,11.4,0.00148,0.00221,72.7,73.6,11,105,0,73.9,3.40,0.00,0.00
15min,AgWx,evansfrm,411,13SEP2017:08:15:00,69.1,13.44,72.9,72.9,72.3,72.9,71.8,43,47,42,1.300,48.7,51.6,47.6,0,2.0,138,14,4.7,0.00120,0.00154,72.7,73.6,11,141,0,77.9,3.39,0.00,0.00
15min,AgWx,evansfrm,411,13SEP2017:08:30:00,73.1,13.76,75.9,75.5,75.1,76.8,73.0,40,49,34,1.074,49.1,52.9,45.7,6.204,1.7,145,43,6.2,0.00209,0.00247,72.7,73.4,11,324,0,96.5,3.40,0.01,0.00
15min,AgWx,evansfrm,411,13SEP2017:08:45:00,73.8,13.5,71.0,69.1,73.2,75.5,69.1,43,57,34,1.388,48.8,53.7,45.0,2.959,2.9,252,59,9.5,0.00136,0.00184,72.8,73.4,11,115,0,78.3,3.42,0.02,0.00
15min,AgWx,evansfrm,411,13SEP2017:09:00:00,73.0,13.58,67.2,66.8,67.6,69.1,66.4,61,63,57,1.405,53.6,54.3,53.0,1.973,3.3,317,32,5.3,0.00118,0.00154,72.9,73.4,11,120,0,72.2,3.42,0.00,0.00
15min,AgWx,evansfrm,411,13SEP2017:09:15:00,72.9,14.25,69.4,69.2,67.7,69.2,66.9,61,63,58,1.403,53.9,54.7,53.3,0.614,1.2,358,57,2.7,0.00166,0.00188,73.0,73.0,11,249,0,83.2,3.39,0.00,0.00
15min,AgWx,evansfrm,411,13SEP2017:09:30:00,74.6,13.9,71.3,70.6,69.8,70.8,69.0,58,60,55,1.430,54.3,55.3,53.5,5.13,1.4,14,88,5.1,0.00208,0.00235,73.2,73.0,11,304,0,94.1,3.39,0.00,0.00
15min,AgWx,evansfrm,411,13SEP2017:09:45:00,77.4,14.24,74.9,74.0,71.9,74.0,69.8,55,57,51,1.460,54.9,56.2,53.9,0.68,1.7,171,57,5.5,0.00345,0.00386,73.3,73.0,11,540,0,106.4,3.38,0.00,0.00
15min,AgWx,evansfrm,411,13SEP2017:10:00:00,80.9,14.19,76.5,75.7,74.7,76.3,73.7,47,55,42,1.365,53.1,56.7,51.3,3.179,3.3,188,33,5.8,0.00409,0.00475,73.5,73.0,11,595,0,110.3,3.39,0.01,0.00
15min,AgWx,evansfrm,411,13SEP2017:10:15:00,83.6,14.16,77.9,77.5,76.6,77.7,75.5,40,47,37,1.211,50.8,54.0,49.0,2.74,3.6,199,28,6.9,0.00465,0.00547,73.6,73.0,11,660,0,113.5,3.39,0.00,0.00
15min,AgWx,evansfrm,411,13SEP2017:10:30:00,86.0,14.12,78.6,78.5,78.4,79.3,77.3,38,40,35,1.218,50.5,52.6,48.7,6.511,5.4,184,31,9.5,0.00549,0.00662,74.1,73.0,11,739,0,115.1,3.40,0.01,0.00
15min,AgWx,evansfrm,411,13SEP2017:10:45:00,87.3,14.09,79.5,79.3,78.6,79.6,77.8,37,40,34,1.240,49.9,51.7,48.2,6.862,6.6,207,18,10.9,0.00581,0.00714,74.4,72.9,11,764,0,113.6,3.40,0.00,0.00
15min,AgWx,evansfrm,411,13SEP2017:11:00:00,88.0,14.08,80.4,80.0,79.6,80.5,78.9,34,37,31,1.093,48.5,50.3,46.8,4.341,6.8,191,16,10.3,0.00574,0.00714,74.9,73.0,11,733,0,112.8,3.40,0.00,0.00
15min,AgWx,evansfrm,411,13SEP2017:11:15:00,88.1,14.06,80.2,80.0,80.0,81.1,79.3,32,34,30,1.078,47.5,49.4,46.3,7.103,8.5,193,20,13.6,0.00624,0.00791,75.6,72.9,11,776,0,113.1,3.40,0.00,0.00
15min,AgWx,evansfrm,411,13SEP2017:11:30:00,88.1,14,80.9,80.8,80.6,81.7,79.8,32,33,30,1.128,47.8,49.3,46.0,9.54,8.7,210,18,13.5,0.00670,0.00845,76.2,73.0,11,833,0,115.5,3.40,0.00,0.00
15min,AgWx,evansfrm,411,13SEP2017:11:45:00,88.1,14.05,80.2,79.8,80.5,81.2,79.7,31,33,30,1.109,47.4,49.4,46.3,9.49,10.1,199,18,16.2,0.00645,0.00837,76.7,73.0,11,770,0,111.3,3.41,0.01,0.00
15min,AgWx,evansfrm,411,13SEP2017:12:00:00,87.3,14.02,78.2,78.0,79.4,80.5,78.0,32,33,29,1.086,46.8,48.2,45.0,9.51,9.1,196,13,14.6,0.00504,0.00672,77.4,73.2,11,529,0,100.7,3.41,0.00,0.00
15min,AgWx,evansfrm,411,13SEP2017:12:15:00,85.9,14.05,77.8,77.8,77.6,78.0,77.3,34,35,32,1.089,46.7,48.2,45.1,8.15,9.1,195,12,12.8,0.00353,0.00505,78.0,73.0,11,274,0,86.4,3.40,0.00,0.00
15min,AgWx,evansfrm,411,13SEP2017:12:30:00,84.7,14.06,77.9,78.0,77.7,78.0,77.4,33,34,32,1.072,46.5,47.2,45.7,13.72,9.4,194,10,13.7,0.00358,0.00514,78.6,73.4,11,270,0,85.5,3.39,0.00,0.00
15min,AgWx,evansfrm,411,13SEP2017:12:45:00,84.1,14.09,78.5,78.2,78.3,78.7,77.8,33,34,31,1.081,46.6,48.2,45.4,5.853,7.8,197,12,13.0,0.00360,0.00500,79.2,73.6,11,310,0,88.0,3.39,0.00,0.00
15min,AgWx,evansfrm,411,13SEP2017:13:00:00,84.1,14.09,79.4,79.1,79.1,79.8,78.5,32,35,31,1.173,47.0,48.8,45.5,4.165,7.5,198,12,14.6,0.00385,0.00524,79.5,73.8,11,359,0,91.0,3.39,0.00,0.00
15min,AgWx,evansfrm,411,13SEP2017:13:15:00,83.8,14.08,78.3,78.2,78.7,79.6,78.1,33,34,32,1.106,47.3,48.8,46.2,9.95,9.2,199,15,15.2,0.00360,0.00516,79.8,73.8,11,273,0,87.6,3.40,0.01,0.00
15min,AgWx,evansfrm,411,13SEP2017:13:30:00,83.1,14.08,79.1,79.0,78.6,79.6,77.9,33,35,32,1.116,47.3,48.5,46.1,14.1,10.1,210,17,16.0,0.00435,0.00604,80.0,73.9,11,400,0,92.1,3.39,0.00,0.00
15min,AgWx,evansfrm,411,13SEP2017:13:45:00,82.8,14.1,78.3,78.4,78.5,79.3,77.7,34,35,32,1.149,47.5,48.5,46.5,12.54,10.1,204,14,15.1,0.00401,0.00569,80.2,74.3,11,335,0,89.5,3.39,0.00,0.00
15min,AgWx,evansfrm,411,13SEP2017:14:00:00,82.5,14.08,78.2,78.1,78.4,78.9,78.0,34,36,33,1.106,47.8,49.2,46.5,9.38,9.2,211,12,14.2,0.00399,0.00555,80.4,74.5,11,358,0,90.9,3.39,0.00,0.00
15min,AgWx,evansfrm,411,13SEP2017:14:15:00,82.4,14.08,78.2,78.1,78.0,78.4,77.8,34,36,32,1.125,47.2,48.4,46.0,6.62,7.7,210,14,11.5,0.00327,0.00461,80.4,74.3,11,266,0,86.4,3.39,0.00,0.00
15min,AgWx,evansfrm,411,13SEP2017:14:30:00,82.4,14.1,78.5,78.7,78.4,78.9,78.0,33,36,31,1.090,47.2,48.7,45.7,4.582,5.8,211,13,8.7,0.00326,0.00437,80.7,74.5,11,317,0,88.6,3.38,0.00,0.00
15min,AgWx,evansfrm,411,13SEP2017:14:45:00,83.0,14.08,79.0,79.2,79.0,79.3,78.4,33,35,30,1.126,47.2,48.9,45.0,4.384,4.4,206,15,7.2,0.00310,0.00401,80.9,74.8,11,329,0,91.1,3.38,0.00,0.00
15min,AgWx,evansfrm,411,13SEP2017:15:00:00,83.2,14.11,79.9,80.2,78.9,80.2,78.4,32,34,30,1.104,46.6,48.2,44.8,1.973,3.9,204,20,6.0,0.00299,0.00384,80.9,74.8,11,332,0,90.7,3.38,0.00,0.00
15min,AgWx,evansfrm,411,13SEP2017:15:15:00,83.8,14.06,79.5,79.6,79.7,81.0,79.0,29,32,28,1.003,44.9,48.0,43.4,2.258,3.2,168,26,6.5,0.00274,0.00348,81.1,74.8,11,300,0,93.5,3.39,0.01,0.00
15min,AgWx,evansfrm,411,13SEP2017:15:30:00,83.6,14.04,79.5,78.8,79.3,79.8,78.7,29,32,28,1.000,44.5,47.0,43.4,1.578,2.1,274,68,3.6,0.00194,0.00245,81.2,74.8,11,205,0,89.2,3.39,0.00,0.00
15min,AgWx,evansfrm,411,13SEP2017:15:45:00,83.2,14.09,79.5,79.6,78.8,79.6,78.3,32,38,29,1.058,46.5,51.5,43.8,3.836,1.4,360,61,4.2,0.00187,0.00223,81.2,75.2,11,238,0,90.2,3.39,0.00,0.00
15min,AgWx,evansfrm,411,13SEP2017:16:00:00,83.6,14.07,80.6,80.6,79.9,80.9,79.3,30,34,28,1.066,46.1,48.5,44.6,7.848,5.1,133,55,11.0,0.00285,0.00386,81.4,75.2,11,288,0,92.2,3.38,0.00,0.00
15min,AgWx,evansfrm,411,13SEP2017:16:15:00,85.4,14.03,82.1,82.1,81.9,83.2,80.7,29,31,27,1.027,46.6,48.9,45.2,8.92,7.9,183,16,11.5,0.00473,0.00631,81.4,75.4,11,537,0,101.1,3.38,0.00,0.00
15min,AgWx,evansfrm,411,13SEP2017:16:30:00,87.0,14.01,82.4,82.8,82.5,83.0,81.8,29,31,27,1.110,47.0,49.1,44.8,7.3,6.1,209,21,9.6,0.00389,0.00517,81.5,75.4,11,454,0,99.9,3.38,0.00,0.00
15min,AgWx,evansfrm,411,13SEP2017:16:45:00,87.7,13.98,81.1,81.1,82.2,83.0,81.1,28,31,27,1.089,46.2,48.1,44.7,8.05,6.2,209,22,11.9,0.00334,0.00461,81.7,75.6,11,375,0,97.3,3.38,0.00,0.00
15min,AgWx,evansfrm,411,13SEP2017:17:00:00,88.0,13.96,81.3,81.4,81.8,82.3,81.2,29,31,28,1.101,46.8,47.8,45.4,4.165,6.0,214,23,9.8,0.00316,0.00437,81.8,75.6,11,357,0,95.4,3.38,0.00,0.00
15min,AgWx,evansfrm,411,13SEP2017:17:15:00,87.6,13.96,81.1,81.4,81.4,82.5,80.6,29,31,28,1.019,46.3,48.1,44.9,9.6,7.2,189,16,12.5,0.00271,0.00407,82.0,75.6,11,264,0,90.1,3.38,0.00,0.00
15min,AgWx,evansfrm,411,13SEP2017:17:30:00,87.0,13.94,80.2,80.6,80.9,81.4,80.5,29,30,28,1.064,45.8,46.7,44.8,4.647,6.3,188,12,9.2,0.00226,0.00346,82.2,75.7,11,223,0,87.1,3.38,0.00,0.00
15min,AgWx,evansfrm,411,13SEP2017:17:45:00,86.2,13.76,79.7,80.1,80.3,80.7,79.9,30,32,28,1.103,46.4,47.6,44.9,2.959,5.4,183,16,8.5,0.00170,0.00271,82.4,75.7,11,173,0,84.3,3.38,0.00,0.00
15min,AgWx,evansfrm,411,13SEP2017:18:00:00,85.0,13.57,78.6,78.8,79.6,80.3,78.8,31,33,30,1.045,46.7,48.0,45.2,6.029,4.6,187,13,8.1,0.00108,0.00190,82.6,75.7,11,114,0,79.7,3.38,0.00,0.00
15min,AgWx,evansfrm,411,13SEP2017:18:15:00,83.4,13.35,76.4,76.6,77.9,78.9,76.6,33,35,31,1.107,46.6,47.4,45.6,2.389,3.5,197,11,6.8,0.00046,0.00106,82.6,75.7,11,62,0,75.7,3.39,0.00,0.00
15min,AgWx,evansfrm,411,13SEP2017:18:30:00,81.2,13.19,73.7,74.2,74.1,76.6,72.9,40,41,36,1.137,48.1,48.9,47.4,3.617,3.3,166,7.4,4.4,0.00018,0.00065,82.7,76.1,11,18,0,72.3,3.39,0.00,0.00
15min,AgWx,evansfrm,411,13SEP2017:18:45:00,79.1,13.1,70.5,69.8,72.9,74.9,69.8,41,46,37,1.144,47.6,48.5,46.4,2.653,3.6,157,8.8,4.7,0.00025,0.00041,82.5,76.1,11,4,0,70.8,3.39,0.00,0.00
15min,AgWx,evansfrm,411,13SEP2017:19:00:00,76.7,13.07,68.9,69.4,69.3,70.3,68.6,47,49,45,1.133,48.2,48.8,47.5,3.442,2.7,167,17,3.6,0.00006,0.00014,82.4,76.1,11,1,0,67.1,3.39,0.00,0.00
15min,AgWx,evansfrm,411,13SEP2017:19:15:00,74.5,13.06,66.6,66.4,68.2,69.9,66.4,48,51,45,1.084,47.7,48.5,46.1,1.907,2.5,164,16,3.6,0.00002,0.00008,82.3,76.3,11,0,0,66.1,3.38,0.00,0.00
15min,AgWx,evansfrm,411,13SEP2017:19:30:00,72.4,13.05,67.7,68.2,66.6,68.2,65.8,50,52,47,1.097,47.5,48.2,46.9,3.88,3.0,178,9.2,4.8,0.00006,0.00013,81.9,76.3,11,0,0,64.7,3.38,0.00,0.00
15min,AgWx,evansfrm,411,13SEP2017:19:45:00,70.8,13.04,65.4,65.5,65.9,68.7,64.3,52,55,46,1.161,47.8,48.5,46.9,4.209,3.1,172,16,4.8,0.00006,0.00014,81.6,76.5,11,0,0,64.3,3.37,0.00,0.00
15min,AgWx,evansfrm,411,13SEP2017:20:00:00,69.6,13.04,65.3,65.4,65.5,65.8,65.1,55,56,53,1.179,48.7,49.1,48.0,2.236,3.7,166,5.1,4.8,0.00012,0.00020,81.3,76.3,11,0,0,64.7,3.37,0.00,0.00
15min,AgWx,evansfrm,411,13SEP2017:20:15:00,68.4,13.03,63.9,64.1,64.3,65.4,63.8,56,57,54,1.161,48.1,49.0,47.0,1.096,1.4,171,35,3.2,-0.00016,-0.00020,81.0,76.3,11,0,0,61.9,3.38,0.01,0.00
15min,AgWx,evansfrm,411,13SEP2017:20:30:00,67.1,12.99,63.0,63.3,63.9,64.8,63.1,57,60,54,1.168,48.4,49.0,47.4,0,0.8,312,50,2.1,-0.00025,-0.00035,80.6,76.3,11,0,0,60.1,3.38,0.00,0.00
15min,AgWx,evansfrm,411,13SEP2017:20:45:00,66.0,13.02,62.0,62.1,62.2,63.7,60.9,58,60,56,1.090,47.3,48.6,46.5,4.45,3.0,157,20,5.0,0.00001,0.00005,80.2,76.5,11,0,0,61.0,3.38,0.00,0.00
15min,AgWx,evansfrm,411,13SEP2017:21:00:00,65.3,13.01,64.0,63.9,64.3,65.0,62.2,53,57,52,1.093,47.0,47.4,46.6,2.214,3.6,176,11,5.9,0.00011,0.00019,79.8,76.3,11,0,0,62.6,3.37,0.00,0.00
15min,AgWx,evansfrm,411,13SEP2017:21:15:00,64.8,13.01,62.6,62.8,63.1,64.0,62.5,56,58,54,1.100,47.2,47.8,46.8,0,1.9,170,28,3.2,-0.00010,-0.00010,79.6,76.3,11,0,0,61.5,3.37,0.00,0.00
15min,AgWx,evansfrm,411,13SEP2017:21:30:00,64.5,13,62.7,62.7,62.9,63.3,62.5,57,58,56,1.113,47.4,47.8,47.0,0,0.4,184,6.7,1.6,-0.00031,-0.00047,79.3,76.1,11,0,0,61.4,3.37,0.00,0.00
15min,AgWx,evansfrm,411,13SEP2017:21:45:00,64.4,12.99,63.3,63.4,63.3,63.9,62.9,57,60,54,1.128,47.9,48.8,46.7,1.776,0.8,40,19,2.3,-0.00024,-0.00035,78.8,76.1,11,0,0,62.0,3.37,0.00,0.00
15min,AgWx,evansfrm,411,13SEP2017:22:00:00,64.3,12.99,63.5,63.4,63.7,64.0,63.3,56,58,55,1.157,47.9,48.6,47.1,0,1.5,21,17,2.8,-0.00014,-0.00018,78.6,76.1,11,0,0,62.2,3.37,0.00,0.00
15min,AgWx,evansfrm,411,13SEP2017:22:15:00,64.3,12.98,64.1,64.0,63.1,64.0,62.7,59,61,55,1.112,48.7,49.5,47.4,4.954,1.5,271,38,6.9,-0.00016,-0.00021,78.3,75.9,11,0,0,62.7,3.37,0.00,0.00
15min,AgWx,evansfrm,411,13SEP2017:22:30:00,64.9,12.98,69.2,69.0,67.4,69.3,64.0,46,54,42,1.047,45.7,47.3,45.1,10.46,10.8,166,20,15.0,0.00069,0.00089,78.0,75.9,11,0,0,67.1,3.36,0.00,0.00
15min,AgWx,evansfrm,411,13SEP2017:22:45:00,66.2,12.96,70.8,70.6,70.0,70.7,69.0,44,44,43,1.104,46.9,47.7,46.0,10.63,9.9,169,24,13.5,0.00073,0.00095,77.7,75.7,11,0,11,68.6,3.37,0.01,0.00
15min,AgWx,evansfrm,411,13SEP2017:23:00:00,66.9,12.94,67.8,67.8,69.3,70.7,67.5,49,56,43,1.278,49.2,51.3,47.2,7.585,7.2,187,24,11.7,0.00048,0.00067,77.6,75.7,11,0,69,63.2,3.41,0.04,0.00
15min,AgWx,evansfrm,411,13SEP2017:23:15:00,66.6,12.96,67.1,66.7,66.8,67.7,66.2,58,60,55,1.277,51.8,52.5,50.6,15.21,10.9,153,9.8,17.9,0.00050,0.00064,77.3,75.6,11,0,28,63.0,3.39,0.00,0.00
15min,AgWx,evansfrm,411,13SEP2017:23:30:00,66.0,12.97,66.8,66.8,66.6,67.1,66.1,59,61,57,1.317,51.8,52.4,51.1,9.14,11.8,145,10,15.9,0.00053,0.00067,77.1,75.4,11,0,32,61.9,3.39,0.00,0.00
15min,AgWx,evansfrm,411,13SEP2017:23:45:00,65.8,12.91,66.1,65.9,66.7,67.4,65.8,58,61,56,1.325,51.7,52.3,50.6,8.48,8.3,150,25,12.6,0.00040,0.00054,76.8,75.4,11,0,14,65.0,3.38,0.00,0.00
15min,AgWx,drainfrm,410,13SEP2017:00:00:00,56.2,12.76,54.7,55.3,55.5,55.9,55.0,87,88,86,1.317,51.7,52.2,50.9,2.433,2.2,51,25,3.4,-0.00009,-0.00012,68.1,68.0,14,0,100,57.1,3.49,0.00,0.00
15min,AgWx,drainfrm,410,13SEP2017:00:15:00,55.8,12.76,54.7,55.0,55.3,55.5,55.0,87,89,86,1.275,51.4,52.1,50.9,4.099,2.7,60,17,4.3,-0.00008,-0.00009,68.0,68.0,14,0,100,56.9,3.49,0.00,0.00
15min,AgWx,drainfrm,410,13SEP2017:00:30:00,55.5,12.75,56.0,56.5,56.0,57.0,54.9,84,87,82,1.287,51.4,51.8,50.9,4.121,3.7,56,9.4,4.4,-0.00003,-0.00002,67.9,67.8,14,0,100,58.1,3.49,0.00,0.00
15min,AgWx,drainfrm,410,13SEP2017:00:45:00,55.3,12.75,54.7,55.3,56.0,56.9,55.1,84,86,82,1.259,51.2,51.8,50.0,1.25,1.9,8.1,35,4.4,-0.00009,-0.00012,67.8,68.0,14,0,100,58.0,3.49,0.00,0.00
15min,AgWx,drainfrm,410,13SEP2017:01:00:00,54.8,12.74,52.6,53.5,54.7,55.4,53.5,85,88,82,1.158,50.5,51.3,48.5,1.841,1.3,331,19,2.0,-0.00013,-0.00018,67.6,67.8,14,0,100,56.5,3.48,0.00,0.00
15min,AgWx,drainfrm,410,13SEP2017:01:15:00,54.3,12.74,52.2,52.9,53.7,55.1,52.6,88,90,83,1.180,50.2,52.0,48.1,2.631,2.2,331,24,3.5,-0.00010,-0.00012,67.5,68.0,14,0,100,55.9,3.48,0.00,0.00
15min,AgWx,drainfrm,410,13SEP2017:01:30:00,53.9,12.74,52.8,53.2,52.9,53.4,52.0,89,91,84,1.256,49.7,50.8,47.4,2.28,2.2,44,42,3.7,-0.00010,-0.00013,67.4,68.0,14,0,100,55.1,3.48,0.00,0.00
15min,AgWx,drainfrm,410,13SEP2017:01:45:00,53.6,12.73,55.8,56.8,53.8,56.8,51.6,89,92,82,1.294,50.5,51.9,48.2,2.039,4.4,19,70,11.4,-0.00004,-0.00003,67.2,67.8,14,0,99,55.1,3.48,0.00,0.00
15min,AgWx,drainfrm,410,13SEP2017:02:00:00,53.9,12.72,55.1,55.8,56.7,57.4,55.8,83,85,81,1.288,51.7,52.2,51.2,4.056,2.8,20,41,4.1,-0.00006,-0.00006,67.1,67.8,14,0,100,57.9,3.48,0.00,0.00
15min,AgWx,drainfrm,410,13SEP2017:02:15:00,54.0,12.72,54.5,55.1,55.4,55.8,54.6,86,88,85,1.277,51.2,51.6,50.6,2.017,2.8,52,59,6.5,-0.00007,-0.00008,67.0,68.0,14,0,100,56.4,3.48,0.00,0.00
15min,AgWx,drainfrm,410,13SEP2017:02:30:00,54.0,12.72,54.6,55.2,54.8,55.4,54.4,86,87,84,1.248,50.8,51.2,50.5,3.025,3.4,83,16,4.5,-0.00005,-0.00005,67.0,67.6,14,0,100,55.9,3.48,0.00,0.00
15min,AgWx,drainfrm,410,13SEP2017:02:45:00,54.0,12.71,56.5,56.9,56.2,58.6,54.1,80,86,72,1.244,50.1,51.1,48.8,2.389,3.2,345,72,6.1,-0.00002,-0.00001,66.9,67.8,14,0,100,57.3,3.48,0.00,0.00
15min,AgWx,drainfrm,410,13SEP2017:03:00:00,54.0,12.69,54.0,54.5,55.3,56.9,54.4,83,86,78,1.236,50.3,51.0,49.9,3.398,2.9,20,23,3.9,-0.00005,-0.00005,66.7,67.5,14,0,100,56.6,3.48,0.00,0.00
15min,AgWx,drainfrm,410,13SEP2017:03:15:00,53.8,12.7,54.4,54.7,54.2,54.8,53.4,83,86,79,1.244,49.1,50.5,48.1,1.951,2.3,308,62,6.3,-0.00007,-0.00009,66.7,67.8,14,0,100,55.7,3.48,0.00,0.00
15min,AgWx,drainfrm,410,13SEP2017:03:30:00,53.8,12.7,53.1,53.5,54.8,55.7,53.5,86,89,83,1.195,50.6,51.4,49.3,5.108,2.5,239,81,5.1,-0.00008,-0.00010,66.5,67.3,14,0,100,57.2,3.48,0.00,0.00
15min,AgWx,drainfrm,410,13SEP2017:03:45:00,54.0,12.69,55.7,56.1,54.9,56.1,53.1,85,88,83,1.277,50.5,51.3,49.1,5.042,5.0,311,23,7.7,0.00000,0.00002,66.5,67.6,14,0,100,57.3,3.48,0.00,0.00
15min,AgWx,drainfrm,410,13SEP2017:04:00:00,54.6,12.69,55.8,56.3,56.4,56.9,55.8,83,84,82,1.272,51.4,52.2,50.8,4.669,5.0,325,27,6.6,0.00002,0.00004,66.3,67.6,14,0,100,58.8,3.48,0.00,0.00
15min,AgWx,drainfrm,410,13SEP2017:04:15:00,54.8,12.68,55.7,55.9,56.3,56.7,55.9,84,87,82,1.300,51.4,52.2,50.7,3.179,3.9,319,33,5.6,-0.00001,-0.00000,66.2,67.3,14,0,100,58.2,3.47,0.00,0.00
15min,AgWx,drainfrm,410,13SEP2017:04:30:00,54.7,12.67,53.8,54.1,54.8,56.0,53.9,88,91,85,1.284,51.3,51.9,51.0,4.691,3.7,75,26,5.6,-0.00005,-0.00005,66.2,67.6,14,0,100,56.2,3.47,0.00,0.00
15min,AgWx,drainfrm,410,13SEP2017:04:45:00,54.7,12.67,55.0,55.3,54.7,55.4,54.2,88,90,87,1.298,51.3,51.7,51.0,3.486,4.9,96,14,6.1,-0.00002,-0.00002,66.2,67.1,14,0,100,56.5,3.47,0.00,0.00
15min,AgWx,drainfrm,410,13SEP2017:05:00:00,54.9,12.66,57.2,57.7,56.4,57.8,55.3,83,87,78,1.277,51.2,51.7,50.4,1.71,3.4,108,15,4.5,-0.00003,-0.00002,66.0,67.1,14,0,100,59.0,3.47,0.00,0.00
15min,AgWx,drainfrm,410,13SEP2017:05:15:00,55.4,12.65,59.5,60.4,58.5,60.4,57.6,74,79,66,1.190,50.4,51.2,48.8,4.143,3.8,120,22,6.2,0.00005,0.00008,66.0,67.1,14,0,100,61.5,3.47,0.00,0.00
15min,AgWx,drainfrm,410,13SEP2017:05:30:00,56.5,12.65,61.1,61.6,61.6,62.1,60.2,61,66,58,1.124,47.9,48.9,47.0,5.502,4.7,163,14,5.8,0.00021,0.00031,66.0,66.7,14,0,100,63.4,3.47,0.00,0.00
15min,AgWx,drainfrm,410,13SEP2017:05:45:00,57.1,12.64,56.7,57.0,59.6,61.9,56.9,71,82,59,1.292,49.9,51.8,47.3,6.752,6.3,246,55,16.6,0.00019,0.00027,65.8,67.5,14,0,100,61.4,3.47,0.00,0.00
15min,AgWx,drainfrm,410,13SEP2017:06:00:00,56.7,12.64,55.3,55.7,56.1,57.0,55.4,83,85,82,1.266,51.1,51.6,50.5,2.214,3.3,291,12,6.9,-0.00003,-0.00003,65.9,66.7,14,1,100,57.6,3.47,0.00,0.00
15min,AgWx,drainfrm,410,13SEP2017:06:15:00,56.2,12.64,54.8,54.9,55.5,56.4,54.8,86,90,83,1.325,51.4,52.2,50.7,5.48,2.6,112,71,5.7,-0.00006,-0.00007,65.8,67.1,14,6,100,58.1,3.47,0.00,0.00
15min,AgWx,drainfrm,410,13SEP2017:06:30:00,56.1,12.63,56.0,56.4,55.7,56.4,55.0,88,90,86,1.345,52.2,52.5,52.0,2.718,4.7,99,14,6.9,-0.00013,-0.00004,65.8,66.6,14,17,100,58.4,3.47,0.00,0.00
15min,AgWx,drainfrm,410,13SEP2017:06:45:00,57.5,12.63,57.4,57.4,57.0,57.5,56.4,82,87,80,1.293,51.7,52.5,51.2,1.381,3.6,292,62,8.1,0.00007,0.00019,65.7,66.2,14,74,100,60.6,3.47,0.00,0.00
15min,AgWx,drainfrm,410,13SEP2017:07:00:00,61.2,12.63,59.2,58.5,58.4,59.3,57.5,79,81,78,1.358,52.0,52.8,51.4,1.293,1.9,350,18,4.1,0.00026,0.00036,65.6,67.3,14,114,98,64.1,3.47,0.00,0.00
15min,AgWx,drainfrm,410,13SEP2017:07:15:00,64.3,12.63,61.0,60.2,59.5,60.2,58.4,79,81,77,1.402,53.2,53.8,52.5,2.389,1.7,17,29,4.4,0.00042,0.00052,65.7,67.5,14,141,38,65.9,3.47,0.00,0.00
15min,AgWx,drainfrm,410,13SEP2017:07:30:00,64.9,12.63,60.8,61.1,60.9,61.3,60.2,74,79,71,1.398,52.6,53.8,51.5,2.828,4.1,330,41,7.7,0.00064,0.00089,65.6,66.7,14,88,4,66.5,3.47,0.00,0.00
15min,AgWx,drainfrm,410,13SEP2017:07:45:00,64.6,12.61,62.0,62.3,61.5,62.3,61.0,75,78,71,1.360,53.5,54.1,52.8,1.381,3.3,19,20,5.1,0.00070,0.00091,65.5,66.6,14,98,0,67.5,3.47,0.00,0.00
15min,AgWx,drainfrm,410,13SEP2017:08:00:00,64.6,12.63,62.5,62.7,62.5,62.7,62.3,73,75,71,1.410,53.8,54.6,52.8,4.669,3.4,16,21,6.1,0.00069,0.00092,65.6,66.4,14,71,12,68.0,3.47,0.00,0.00